Weather History for Block Island, RI

Change the Weather History Date:

Tuesday, November 5, 2013

  Actual Average Record
Temperature  
Mean Temperature 44 °F -  
Max Temperature 48 °F 55 °F 69 °F (1975)
Min Temperature 39 °F 44 °F 34 °F (1965)
Degree Days  
Heating Degree Days 22    
Moisture  
Dew Point 31 °F    
Average Humidity 60    
Maximum Humidity 76    
Minimum Humidity 50    
Precipitation  
Precipitation 0.00 in - - ()
Sea Level Pressure  
Sea Level Pressure 30.62 in    
Wind  
Wind Speed 5 mph (ESE)    
Max Wind Speed 9 mph    
Max Gust Speed -    
Visibility 10 miles    
Events      
Averages and records for this station are not official NWS values.
T = Trace of Precipitation, MM = Missing Value Source: NWS Daily Summary

Daily Weather History Graph

Daily Weather History Graph

Search for Another Location

Airport:

Trip Planner

Search our weather history database for the weather conditions in past years. The results will help you decide how hot, cold, wet, or windy it might be!

Date:

Astronomy

Nov. 05, 2013 Rise Set
Actual Time 6:22 AM EST 4:36 PM EST
Civil Twilight 5:53 AM EST 5:05 PM EST
Nautical Twilight 5:20 AM EST 5:38 PM EST
Astronomical Twilight 4:48 AM EST 6:10 PM EST
Moon 8:35 AM EST (11/5) 6:34 PM EST (11/5)
Length of Visible Light 11h 12m
Length of Day
10h 14m
Waxing Crescent, 6% of the Moon is Illuminated
Nov 5
Waxing Crescent
Nov 10
First Quarter
Nov 17
Full
Nov 25
Last Quarter
Dec 2
New

Hourly Weather History & Observations

Time (EST) Temp. Windchill Dew Point Humidity Pressure Visibility Wind Dir Wind Speed Gust Speed Precip Events Conditions
12:15 AM 39.2 °F 35.0 °F 26.6 °F 61% 30.66 in 10.0 mi East 5.8 mph - N/A   Partly Cloudy
12:35 AM 39.2 °F 35.0 °F 24.8 °F 56% 30.67 in 10.0 mi East 5.8 mph - N/A   Clear
12:55 AM 39.2 °F 37.0 °F 26.6 °F 61% 30.67 in 10.0 mi ENE 3.5 mph - N/A   Clear
1:15 AM 41.0 °F 39.0 °F 26.6 °F 57% 30.67 in 10.0 mi ESE 3.5 mph - N/A   Scattered Clouds
1:35 AM 39.2 °F 35.0 °F 26.6 °F 61% 30.67 in 10.0 mi ESE 5.8 mph - N/A   Mostly Cloudy
1:55 AM 39.2 °F 37.0 °F 28.4 °F 65% 30.67 in 10.0 mi ESE 3.5 mph - N/A   Overcast
2:15 AM 39.2 °F - 28.4 °F 65% 30.67 in 10.0 mi Calm Calm - N/A   Mostly Cloudy
2:35 AM 39.2 °F 35.9 °F 26.6 °F 61% 30.67 in 10.0 mi SE 4.6 mph - N/A   Mostly Cloudy
2:55 AM 39.2 °F 37.0 °F 26.6 °F 61% 30.66 in 10.0 mi ESE 3.5 mph - N/A   Overcast
3:15 AM 39.2 °F 37.0 °F 26.6 °F 61% 30.66 in 10.0 mi ENE 3.5 mph - N/A   Scattered Clouds
3:35 AM 41.0 °F 37.1 °F 26.6 °F 57% 30.66 in 10.0 mi East 5.8 mph - N/A   Scattered Clouds
3:55 AM 41.0 °F 37.1 °F 26.6 °F 57% 30.65 in 10.0 mi East 5.8 mph - N/A   Partly Cloudy
4:15 AM 41.0 °F 39.0 °F 26.6 °F 57% 30.65 in 10.0 mi ESE 3.5 mph - N/A   Clear
4:35 AM 41.0 °F 39.0 °F 26.6 °F 57% 30.66 in 10.0 mi ENE 3.5 mph - N/A   Clear
4:55 AM 41.0 °F - 26.6 °F 57% 30.66 in 10.0 mi Calm Calm - N/A   Clear
5:15 AM 42.8 °F 41.1 °F 28.4 °F 57% 30.66 in 10.0 mi East 3.5 mph - N/A   Scattered Clouds
5:35 AM 42.8 °F 39.3 °F 28.4 °F 57% 30.66 in 10.0 mi East 5.8 mph - N/A   Scattered Clouds
5:55 AM 42.8 °F 38.6 °F 30.2 °F 61% 30.65 in 10.0 mi ENE 6.9 mph - N/A   Mostly Cloudy
6:15 AM 42.8 °F 40.1 °F 30.2 °F 61% 30.65 in 10.0 mi ENE 4.6 mph - N/A   Scattered Clouds
6:35 AM 42.8 °F 40.1 °F 30.2 °F 61% 30.66 in 10.0 mi East 4.6 mph - N/A   Scattered Clouds
6:55 AM 42.8 °F 39.3 °F 28.4 °F 57% 30.67 in 10.0 mi East 5.8 mph - N/A   Mostly Cloudy
7:15 AM 42.8 °F 38.6 °F 30.2 °F 61% 30.68 in 10.0 mi ENE 6.9 mph - N/A   Scattered Clouds
7:35 AM 42.8 °F 39.3 °F 30.2 °F 61% 30.68 in 10.0 mi ENE 5.8 mph - N/A   Scattered Clouds
7:55 AM 44.6 °F 41.4 °F 30.2 °F 57% 30.68 in 10.0 mi East 5.8 mph - N/A   Mostly Cloudy
8:15 AM 44.6 °F 41.4 °F 30.2 °F 57% 30.68 in 10.0 mi East 5.8 mph - N/A   Mostly Cloudy
8:35 AM 46.4 °F 45.2 °F 32.0 °F 57% 30.68 in 10.0 mi ENE 3.5 mph - N/A   Mostly Cloudy
8:55 AM 44.6 °F 41.4 °F 30.2 °F 57% 30.68 in 10.0 mi ENE 5.8 mph - N/A   Mostly Cloudy
9:15 AM 44.6 °F 42.2 °F 30.2 °F 57% 30.68 in 10.0 mi NE 4.6 mph - N/A   Scattered Clouds
9:35 AM 46.4 °F 42.4 °F 30.2 °F 53% 30.68 in 10.0 mi ENE 8.1 mph - N/A   Scattered Clouds
9:55 AM 46.4 °F 41.9 °F 32.0 °F 57% 30.68 in 10.0 mi ENE 9.2 mph - N/A   Scattered Clouds
10:15 AM 46.4 °F 42.4 °F 32.0 °F 57% 30.68 in 10.0 mi East 8.1 mph - N/A   Partly Cloudy
10:35 AM 48.2 °F - 33.8 °F 58% 30.67 in 10.0 mi East 8.1 mph - N/A   Mostly Cloudy
10:55 AM 48.2 °F - 33.8 °F 58% 30.67 in 10.0 mi East 8.1 mph - N/A   Scattered Clouds
11:15 AM 48.2 °F - 33.8 °F 58% 30.67 in 10.0 mi East 6.9 mph - N/A   Partly Cloudy
11:35 AM 48.2 °F - 35.6 °F 62% 30.65 in 10.0 mi ESE 8.1 mph - N/A   Scattered Clouds
11:55 AM 48.2 °F - 33.8 °F 58% 30.65 in 10.0 mi ENE 5.8 mph - N/A   Scattered Clouds
12:15 PM 48.2 °F - 32.0 °F 54% 30.65 in 10.0 mi SSE 4.6 mph - N/A   Scattered Clouds
12:35 PM 48.2 °F - 33.8 °F 58% 30.64 in 10.0 mi ESE 8.1 mph - N/A   Mostly Cloudy
12:55 PM 48.2 °F - 32.0 °F 54% 30.63 in 10.0 mi SE 8.1 mph - N/A   Mostly Cloudy
1:15 PM 48.2 °F - 33.8 °F 58% 30.62 in 10.0 mi SE 6.9 mph - N/A   Scattered Clouds
1:35 PM 48.2 °F - 32.0 °F 54% 30.61 in 10.0 mi ESE 6.9 mph - N/A   Scattered Clouds
1:55 PM 48.2 °F - 32.0 °F 54% 30.61 in 10.0 mi ENE 5.8 mph - N/A   Partly Cloudy
2:15 PM 48.2 °F - 30.2 °F 50% 30.61 in 10.0 mi SE 4.6 mph - N/A   Clear
2:35 PM 48.2 °F - 30.2 °F 50% 30.61 in 10.0 mi SE 6.9 mph - N/A   Clear
2:55 PM 48.2 °F - 30.2 °F 50% 30.61 in 10.0 mi SE 5.8 mph - N/A   Clear
3:15 PM 48.2 °F - 30.2 °F 50% 30.61 in 10.0 mi SE 4.6 mph - N/A   Clear
3:35 PM 48.2 °F - 30.2 °F 50% 30.59 in 10.0 mi ESE 5.8 mph - N/A   Clear
3:55 PM 46.4 °F 44.3 °F 32.0 °F 57% 30.59 in 10.0 mi SE 4.6 mph - N/A   Clear
4:15 PM 46.4 °F 45.2 °F 32.0 °F 57% 30.58 in 10.0 mi SE 3.5 mph - N/A   Clear
4:35 PM 44.6 °F 42.2 °F 32.0 °F 61% 30.58 in 10.0 mi SE 4.6 mph - N/A   Clear
4:55 PM 44.6 °F 42.2 °F 32.0 °F 61% 30.58 in 10.0 mi SE 4.6 mph - N/A   Clear
5:15 PM 44.6 °F 42.2 °F 30.2 °F 57% 30.58 in 10.0 mi SE 4.6 mph - N/A   Clear
5:35 PM 44.6 °F 41.4 °F 30.2 °F 57% 30.57 in 10.0 mi SE 5.8 mph - N/A   Clear
5:55 PM 44.6 °F 43.1 °F 32.0 °F 61% 30.57 in 10.0 mi SE 3.5 mph - N/A   Clear
6:15 PM 44.6 °F 42.2 °F 30.2 °F 57% 30.58 in 10.0 mi SSE 4.6 mph - N/A   Clear
6:35 PM 42.8 °F 41.1 °F 30.2 °F 61% 30.58 in 10.0 mi SSE 3.5 mph - N/A   Clear
6:55 PM 44.6 °F 43.1 °F 32.0 °F 61% 30.57 in 10.0 mi SE 3.5 mph - N/A   Clear
7:15 PM 42.8 °F - 30.2 °F 61% 30.57 in 10.0 mi Calm Calm - N/A   Clear
7:35 PM 39.2 °F - 30.2 °F 70% 30.57 in 10.0 mi Calm Calm - N/A   Clear
7:55 PM 42.8 °F - 30.2 °F 61% 30.56 in 10.0 mi Calm Calm - N/A   Clear
8:15 PM 42.8 °F - 30.2 °F 61% 30.57 in 10.0 mi Calm Calm - N/A   Clear
8:35 PM 42.8 °F - 33.8 °F 70% 30.57 in 10.0 mi Calm Calm - N/A   Clear
8:55 PM 42.8 °F 40.1 °F 33.8 °F 70% 30.56 in 10.0 mi SE 4.6 mph - N/A   Clear
9:15 PM 42.8 °F 41.1 °F 33.8 °F 70% 30.56 in 10.0 mi South 3.5 mph - N/A   Clear
9:35 PM 42.8 °F - 33.8 °F 70% 30.56 in 10.0 mi Calm Calm - N/A   Clear
9:55 PM 44.6 °F - 35.6 °F 71% 30.56 in 10.0 mi Calm Calm - N/A   Clear
10:15 PM 44.6 °F - 35.6 °F 71% 30.54 in 10.0 mi Calm Calm - N/A   Clear
10:35 PM 44.6 °F 43.1 °F 33.8 °F 66% 30.54 in 10.0 mi South 3.5 mph - N/A   Clear
10:55 PM 44.6 °F 43.1 °F 33.8 °F 66% 30.54 in 10.0 mi SSW 3.5 mph - N/A   Clear
11:15 PM 42.8 °F 40.1 °F 35.6 °F 76% 30.53 in 10.0 mi SE 4.6 mph - N/A   Clear
11:35 PM 44.6 °F 43.1 °F 35.6 °F 71% 30.54 in 10.0 mi SSW 3.5 mph - N/A   Clear
11:55 PM 44.6 °F 42.2 °F 35.6 °F 71% 30.53 in 10.0 mi SSW 4.6 mph - N/A   Clear